Culdrose, United Kingdom

3:19 PM BST on April 25, 2018 (GMT +0100)
Culdrose Navy

Weather History for EGDR - December, 2010

Change the Weather History Date:

Sunday, December 12, 2010

  Actual Average Record
Temperature  
Mean Temperature 44 °F -  
Max Temperature 46 °F 47 °F 55 °F (1998)
Min Temperature 41 °F 40 °F 35 °F (2005)
Degree Days  
Heating Degree Days 22    
Moisture  
Dew Point 37 °F    
Average Humidity 75    
Maximum Humidity 93    
Minimum Humidity 55    
Precipitation  
Precipitation 0.00 in - - ()
Sea Level Pressure  
Sea Level Pressure 30.19 in    
Wind  
Wind Speed 11 mph ()    
Max Wind Speed 18 mph    
Max Gust Speed 30 mph    
Visibility 7.3 miles    
Events      
Averages and records for this station are not official NWS values.
T = Trace of Precipitation, MM = Missing Value Source: Averaged Metar Reports

Daily Weather History Graph

Daily Weather History Graph

Search for Another Location

Airport or City:

Astronomy

Dec. 12, 2010 Rise Set
Actual Time 8:10 AM GMT 4:18 PM GMT
Civil Twilight 7:32 AM GMT 4:57 PM GMT
Nautical Twilight 6:50 AM GMT 5:38 PM GMT
Astronomical Twilight 6:11 AM GMT 6:17 PM GMT
Moon 11:49 AM GMT (12/12) 11:41 PM GMT (12/12)
Length of Visible Light 9h 24m
Length of Day
8h 08m
Waxing Crescent, 40% of the Moon is Illuminated
Dec 12
Waxing Crescent
Dec 13
First Quarter
Dec 21
Full
Dec 28
Last Quarter
Jan 4
New

Hourly Weather History & Observations

Time (GMT) Temp. Windchill Dew Point Humidity Pressure Visibility Wind Dir Wind Speed Gust Speed Precip Events Conditions
12:50 AM 42.8 °F 37.0 °F 41.0 °F 93% 30.21 in 6.2 mi ENE 10.4 mph - N/A   Overcast
1:50 AM 41.0 °F 35.8 °F 39.2 °F 93% 30.21 in 6.2 mi ENE 8.1 mph - N/A   Overcast
2:50 AM 42 °F - 38 °F 79% 30.21 in 16 mi ENE 8.1 mph - -   Overcast
2:50 AM 41.0 °F 35.8 °F 37.4 °F 87% 30.18 in 6.2 mi ENE 8.1 mph - N/A   Overcast
3:50 AM 41.0 °F 36.4 °F 37.4 °F 87% 30.18 in 6.2 mi ENE 6.9 mph - N/A   Overcast
4:50 AM 41.0 °F 37.1 °F 39.2 °F 93% 30.18 in 6.2 mi East 5.8 mph - N/A   Overcast
5:50 AM 42.8 °F 38.6 °F 39.2 °F 87% 30.15 in 6.2 mi East 6.9 mph - N/A   Overcast
7:50 AM 42.8 °F 36.2 °F 37.4 °F 81% 30.15 in 6.2 mi ESE 12.7 mph - N/A   Overcast
8:50 AM 44 °F - 38 °F 72% 30.21 in 11 mi ESE 11.5 mph - -   Haze
8:50 AM 44.6 °F 38.8 °F 37.4 °F 76% 30.18 in 6.2 mi ESE 11.5 mph - N/A   Overcast
9:50 AM 44.6 °F 37.8 °F 37.4 °F 76% 30.18 in 6.2 mi ESE 15.0 mph - N/A   Mostly Cloudy
10:50 AM 44.6 °F 37.2 °F 37.4 °F 76% 30.18 in 6.2 mi ESE 17.3 mph - N/A   Overcast
11:50 AM 46 °F - 38 °F 64% 30.20 in 11 mi ESE 18.4 mph - -   Haze
11:50 AM 46.4 °F 39.2 °F 37.4 °F 71% 30.18 in 6.2 mi ESE 18.4 mph - N/A   Mostly Cloudy
12:50 PM 46.4 °F 39.5 °F 39.2 °F 76% 30.18 in 6.2 mi ESE 17.3 mph 29.9 mph N/A   Mostly Cloudy
1:50 PM 46.4 °F 39.5 °F 37.4 °F 71% 30.18 in 6.2 mi ESE 17.3 mph - N/A   Mostly Cloudy
2:50 PM 46 °F - 36 °F 59% 30.19 in 11 mi ESE 17.3 mph - -   Haze
2:50 PM 46.4 °F 39.5 °F 35.6 °F 66% 30.15 in 6.2 mi ESE 17.3 mph - N/A   Mostly Cloudy
3:50 PM 44.6 °F 37.4 °F 35.6 °F 71% 30.18 in 6.2 mi ESE 16.1 mph - N/A   Mostly Cloudy
4:50 PM 44.6 °F 38.1 °F 39.2 °F 81% 30.18 in 6.2 mi ESE 13.8 mph - N/A   Mostly Cloudy
5:50 PM 44.6 °F 37.2 °F 37.4 °F 76% 30.18 in 6.2 mi East 17.3 mph 28.8 mph N/A   Mostly Cloudy
6:50 PM 44.6 °F 37.4 °F 35.6 °F 71% 30.18 in 6.2 mi ESE 16.1 mph 27.6 mph N/A   Mostly Cloudy
7:50 PM 44.6 °F 37.4 °F 37.4 °F 76% 30.21 in 6.2 mi ESE 16.1 mph 27.6 mph N/A   Mostly Cloudy
8:50 PM 44.6 °F 37.4 °F 35.6 °F 71% 30.21 in 6.2 mi ESE 16.1 mph - N/A   Mostly Cloudy
9:50 PM 44.6 °F 37.4 °F 33.8 °F 66% 30.21 in 6.2 mi ESE 16.1 mph - N/A   Scattered Clouds
10:50 PM 44.6 °F 38.1 °F 33.8 °F 66% 30.21 in 6.2 mi SE 13.8 mph - N/A   Mostly Cloudy
11:50 PM 45 °F - 34 °F 55% 30.24 in 12 mi ESE 16.1 mph - -   Mostly Cloudy
11:50 PM 44.6 °F 37.4 °F 33.8 °F 66% 30.21 in 6.2 mi ESE 16.1 mph - N/A   Mostly Cloudy